Regional Weather Roundup
Issued by NWS Kansas City/Pleasant Hill, MO

Home | Current Version | Previous Version | Text Only | Print | Product List | Glossary On
Versions: 1 2 3 4 5 6 7 8 9 10 11 12 13 14 15 16 17 18 19 20 21 22 23 24 25 26 27 28 29 30 31 32 33 34 35 36 37 38 39 40 41 42 43 44 45 46 47 48 49 50
000
ASUS43 KEAX 300811
RWREAX

WEATHER ROUNDUP FOR EASTERN KANSAS AND NORTHWEST MISSOURI
NATIONAL WEATHER SERVICE KANSAS CITY/PLEASANT HILL MO
300 AM CDT THU OCT 30 2014

KSZ040-057-103>105-MOZ028-029-037-043-300900-
...KANSAS CITY METROPOLITAN AREA...

CITY           SKY/WX    TMP DP  RH WIND       PRES   REMARKS
K.C. INTL      PTCLDY    47  37  68 S12       30.03F
K.C. DOWNTOWN  CLEAR     50  36  58 S9        30.05F
LEES SUMMIT    CLEAR     48  34  58 S9        30.07F
OLATHE - IXD   CLEAR     47  37  68 S8        30.06F
OLATHE - OJC   CLEAR     45  36  70 S6        30.05F
LAWRENCE       CLEAR     42  36  79 SE3       30.05F

$$

MOZ001>008-011>017-020>025-030>033-038>040-044>046-053-054-300900-
...NORTHERN AND CENTRAL MISSOURI...

CITY           SKY/WX    TMP DP  RH WIND       PRES   REMARKS
ST. JOSEPH     CLEAR     46  37  71 SE6       30.04F
MOSBY          SUNNY     45  34  65 SE5       30.06F
WHITEMAN AFB   PTCLDY    46  34  65 S5        30.08F
CLINTON        PTCLDY    45  37  76 CALM      30.10F HAZE
SEDALIA        CLEAR     45  34  65 SE8       30.11F
WARSAW         NOT AVBL
MARSHALL       CLEAR     43  36  75 E6        30.10F
CHILLICOTHE      N/A     44  35  70 SE5       30.10F
MOBERLY        CLEAR     41  32  70 SE6       30.12F
KIRKSVILLE     PTCLDY    37  33  85 SE5       30.12S WCI  33

$$

MOZ041-047>049-056>058-063>065-088>090-097-300900-
...EASTERN AND SOUTHERN MISSOURI...

CITY           SKY/WX    TMP DP  RH WIND       PRES   REMARKS
ST. LOUIS INTL CLEAR     42  36  79 CALM      30.16F
SPIRIT OF STL  CLEAR     35  33  92 CALM      30.15F
COLUMBIA       CLEAR     41  34  76 SE7       30.13F
JEFFERSON CITY CLEAR     36  34  92 SE6       30.14F WCI  31
MEXICO         CLEAR     37  37 100 S3        30.13S
HANNIBAL       CLEAR     43  32  65 CALM      30.13S
ROLLA          CLEAR     38  31  76 SE6       30.12S WCI  33
LEBANON        CLEAR     43  34  70 SE3       30.13S
OSAGE BEACH    CLEAR     37  30  75 SE5       30.12F WCI  34
SPRINGFIELD    CLEAR     44  36  73 S9        30.12S
BRANSON        CLEAR     50  32  50 CALM      30.15S
NEVADA         CLEAR     43  37  81 S8        30.09F
JOPLIN         CLEAR     47  37  68 S9        30.11F
WEST PLAINS    CLEAR     38  33  82 CALM      30.15F

$$

IAZ060-094-KSZ022-034>040-054-083-096-NEZ052-066-093-300900-
...KANSAS...SOUTHEAST NEBRASKA AND IOWA...

CITY           SKY/WX    TMP DP  RH WIND       PRES   REMARKS
TOPEKA         PTCLDY    44  39  82 CALM      30.03F
MANHATTAN      MOCLDY    55  37  50 SW14      30.00F
EMPORIA        CLEAR     46  38  73 S8        30.04F
CHANUTE        CLEAR     50  41  71 S8        30.07F
WICHITA        CLEAR     50  35  56 S9        30.05R
OMAHA          MOCLDY    47  34  60 SE8       30.02F
LINCOLN        MOCLDY    44  36  73 N3        30.03R
FALLS CITY     PTCLDY    44  36  73 SE6       29.99F
LAMONI         MOCLDY    42  33  70 SE9       30.07F
DES MOINES     MOCLDY    42  33  70 SE7       30.08F

$$




USA.gov is the U.S. government's official web portal to all federal, state and local government web resources and services.